Location: Newark
(50.8086°N, 4.3114°E)
Time: 00:49:29
(UTC+00:00)

XW-2D - Pass Details

Date: 25 January 2020
Orbit: 507 x 528 km, 97.5° (Epoch: 21 February)

Event Time Altitude Azimuth Distance (km) Brightness Sun altitude
Rises 18:07:27 0° 219° (SW) 2,646 ? -16.5°
Reaches altitude 10° 18:11:05 10° 256° (WSW) 1,760 ? -17.1°
Maximum altitude 18:12:10 11° 273° (W) 1,696 ? -17.2°
Drops below altitude 10° 18:13:16 10° 290° (WNW) 1,761 ? -17.4°
Sets 18:16:56 0° 327° (NNW) 2,650 ? -18.0°
